• In Czech Republic
  • List of Countries
  • For 7 days
  • Water Temperature
  • Satellite Maps
  • Weather Map
  • Weather Widgets
  • user-avatar
    Login

    Hourly Weather Barnsley

    Today, 23 October, Monday

    Time Temperature Precipitation Wind Pressure Humidity
    00:00 +8°C° 0 mm 3 mps 751 mmHg 89%
    01:00 +8°C° 0 mm 3 mps 751 mmHg 89%
    02:00 +8°C° 0 mm 3 mps 751 mmHg 90%
    03:00 +8°C° 0 mm 3 mps 751 mmHg 90%
    04:00 +8°C° 0 mm 3 mps 750 mmHg 91%
    05:00 +8°C° 0 mm 2 mps 750 mmHg 92%
    06:00 +9°C° 0 mm 2 mps 750 mmHg 93%
    07:00 +9°C° 0 mm 2 mps 750 mmHg 92%
    08:00 +10°C° 0 mm 3 mps 750 mmHg 92%
    09:00 +10°C° 0 mm 3 mps 750 mmHg 91%
    10:00 +11°C° 0 mm 3 mps 750 mmHg 90%
    11:00 +12°C° 0 mm 4 mps 750 mmHg 90%
    12:00 +13°C° 0 mm 4 mps 750 mmHg 89%
    13:00 +14°C° 0 mm 3 mps 750 mmHg 88%
    14:00 +14°C° 0 mm 3 mps 750 mmHg 88%
    15:00 +16°C° 0 mm 3 mps 750 mmHg 88%
    16:00 +14°C° 0 mm 3 mps 750 mmHg 90%
    17:00 +14°C° 0 mm 3 mps 750 mmHg 92%
    18:00 +13°C° 0 mm 3 mps 750 mmHg 94%
    19:00 +13°C° 0 mm 3 mps 750 mmHg 93%
    20:00 +13°C° 0 mm 4 mps 750 mmHg 92%
    21:00 +13°C° 0 mm 4 mps 750 mmHg 92%
    22:00 +13°C° 0 mm 4 mps 750 mmHg 92%
    23:00 +12°C° 0 mm 4 mps 750 mmHg 92%

    Tomorrow, 24 October, Tuesday

    Time Temperature Precipitation Wind Pressure Humidity
    00:00 +12°C° 0 mm 3 mps 750 mmHg 92%
    01:00 +12°C° 0 mm 3 mps 750 mmHg 93%
    02:00 +12°C° 0 mm 3 mps 750 mmHg 94%
    03:00 +13°C° 0 mm 3 mps 750 mmHg 96%
    04:00 +13°C° 0.3 mm 3 mps 749 mmHg 96%
    05:00 +13°C° 0.3 mm 3 mps 749 mmHg 96%
    06:00 +13°C° 0.3 mm 3 mps 749 mmHg 96%
    07:00 +14°C° 0.4 mm 4 mps 749 mmHg 95%
    08:00 +14°C° 0.4 mm 5 mps 748 mmHg 94%
    09:00 +15°C° 0.4 mm 5 mps 748 mmHg 93%
    10:00 +15°C° 0.1 mm 6 mps 748 mmHg 90%
    11:00 +16°C° 0.1 mm 6 mps 748 mmHg 88%
    12:00 +17°C° 0.1 mm 7 mps 748 mmHg 85%
    13:00 +16°C° 0 mm 7 mps 748 mmHg 85%
    14:00 +16°C° 0 mm 6 mps 748 mmHg 85%
    15:00 +16°C° 0 mm 6 mps 748 mmHg 84%
    16:00 +16°C° 0.6 mm 6 mps 748 mmHg 87%
    17:00 +16°C° 0.6 mm 5 mps 748 mmHg 89%
    18:00 +15°C° 0.6 mm 5 mps 748 mmHg 91%
    19:00 +15°C° 0.8 mm 5 mps 748 mmHg 90%
    20:00 +15°C° 0.8 mm 5 mps 748 mmHg 90%
    21:00 +15°C° 0.8 mm 6 mps 748 mmHg 89%
    22:00 +15°C° 0.5 mm 5 mps 748 mmHg 89%
    23:00 +14°C° 0.5 mm 5 mps 748 mmHg 89%

    Day after tomorrow, 25 October, Wednesday

    Time Temperature Precipitation Wind Pressure Humidity
    00:00 +14°C° 0.5 mm 5 mps 749 mmHg 89%
    01:00 +13°C° 0.1 mm 5 mps 749 mmHg 88%
    02:00 +12°C° 0.1 mm 5 mps 750 mmHg 87%
    03:00 +12°C° 0.1 mm 5 mps 750 mmHg 86%
    04:00 +10°C° 0 mm 5 mps 751 mmHg 86%
    05:00 +10°C° 0 mm 5 mps 751 mmHg 86%
    06:00 +10°C° 0 mm 4 mps 751 mmHg 87%
    07:00 +10°C° 0 mm 5 mps 752 mmHg 85%
    08:00 +10°C° 0 mm 5 mps 752 mmHg 84%
    09:00 +12°C° 0 mm 5 mps 753 mmHg 82%
    10:00 +12°C° 0 mm 5 mps 753 mmHg 80%
    11:00 +13°C° 0 mm 5 mps 754 mmHg 77%
    12:00 +13°C° 0 mm 5 mps 754 mmHg 74%
    13:00 +14°C° 0 mm 5 mps 754 mmHg 74%
    14:00 +14°C° 0 mm 5 mps 754 mmHg 74%
    15:00 +14°C° 0 mm 5 mps 754 mmHg 74%
    16:00 +13°C° 0 mm 4 mps 754 mmHg 78%
    17:00 +12°C° 0 mm 4 mps 754 mmHg 82%
    18:00 +11°C° 0 mm 3 mps 755 mmHg 86%
    19:00 +11°C° 0 mm 3 mps 755 mmHg 86%
    20:00 +12°C° 0 mm 3 mps 755 mmHg 85%
    21:00 +12°C° 0 mm 3 mps 755 mmHg 85%
    22:00 +13°C° 0.2 mm 2 mps 755 mmHg 86%
    23:00 +13°C° 0.2 mm 2 mps 755 mmHg 87%

    26 October, Thursday

    Time Temperature Precipitation Wind Pressure Humidity
    00:00 +12°C° 0.2 mm 2 mps 755 mmHg 88%
    01:00 +12°C° 0 mm 2 mps 755 mmHg 88%
    02:00 +12°C° 0 mm 2 mps 755 mmHg 88%
    03:00 +12°C° 0 mm 2 mps 755 mmHg 87%
    04:00 +12°C° 0 mm 2 mps 755 mmHg 87%
    05:00 +12°C° 0 mm 2 mps 755 mmHg 88%
    06:00 +10°C° 0 mm 2 mps 755 mmHg 88%
    07:00 +12°C° 0 mm 2 mps 756 mmHg 86%
    08:00 +12°C° 0 mm 2 mps 756 mmHg 85%
    09:00 +13°C° 0 mm 2 mps 756 mmHg 83%
    10:00 +13°C° 0 mm 2 mps 757 mmHg 80%
    11:00 +14°C° 0 mm 2 mps 757 mmHg 77%
    12:00 +14°C° 0 mm 3 mps 757 mmHg 74%
    13:00 +14°C° 0 mm 3 mps 757 mmHg 75%
    14:00 +14°C° 0 mm 3 mps 757 mmHg 76%
    15:00 +14°C° 0 mm 3 mps 757 mmHg 76%
    16:00 +13°C° 0 mm 3 mps 757 mmHg 79%
    17:00 +13°C° 0 mm 2 mps 757 mmHg 83%
    18:00 +12°C° 0 mm 2 mps 757 mmHg 86%
    19:00 +10°C° 0 mm 2 mps 758 mmHg 86%
    20:00 +10°C° 0 mm 2 mps 758 mmHg 86%
    21:00 +9°C° 0 mm 2 mps 758 mmHg 86%
    22:00 +9°C° 0 mm 2 mps 758 mmHg 86%
    23:00 +9°C° 0 mm 2 mps 759 mmHg 85%

    27 October, Friday

    Time Temperature Precipitation Wind Pressure Humidity
    00:00 +9°C° 0 mm 2 mps 759 mmHg 85%
    01:00 +9°C° 0 mm 2 mps 759 mmHg 86%
    02:00 +8°C° 0 mm 2 mps 759 mmHg 86%
    03:00 +8°C° 0 mm 2 mps 759 mmHg 87%
    04:00 +8°C° 0 mm 2 mps 759 mmHg 88%
    05:00 +8°C° 0 mm 2 mps 759 mmHg 88%
    06:00 +7°C° 0 mm 2 mps 760 mmHg 88%
    07:00 +8°C° 0 mm 2 mps 760 mmHg 85%
    08:00 +9°C° 0 mm 2 mps 761 mmHg 82%
    09:00 +9°C° 0 mm 2 mps 761 mmHg 79%
    10:00 +10°C° 0 mm 2 mps 761 mmHg 75%
    11:00 +12°C° 0 mm 2 mps 762 mmHg 71%
    12:00 +13°C° 0 mm 2 mps 762 mmHg 67%
    13:00 +13°C° 0 mm 2 mps 762 mmHg 67%
    14:00 +13°C° 0 mm 2 mps 762 mmHg 68%
    15:00 +13°C° 0 mm 2 mps 762 mmHg 68%
    16:00 +12°C° 0 mm 2 mps 762 mmHg 73%
    17:00 +10°C° 0 mm 2 mps 762 mmHg 78%
    18:00 +9°C° 0 mm 2 mps 763 mmHg 83%
    19:00 +8°C° 0 mm 2 mps 763 mmHg 85%
    20:00 +8°C° 0 mm 2 mps 763 mmHg 86%
    21:00 +8°C° 0 mm 3 mps 763 mmHg 88%
    22:00 +8°C° 0 mm 3 mps 763 mmHg 89%
    23:00 +8°C° 0 mm 3 mps 763 mmHg 90%

    28 October, Saturday

    Time Temperature Precipitation Wind Pressure Humidity
    00:00 +7°C° 0 mm 4 mps 763 mmHg 91%
    01:00 +7°C° 0 mm 4 mps 763 mmHg 90%
    02:00 +7°C° 0 mm 4 mps 763 mmHg 89%
    03:00 +7°C° 0 mm 4 mps 762 mmHg 88%
    04:00 +6°C° 0 mm 4 mps 762 mmHg 88%
    05:00 +6°C° 0 mm 4 mps 762 mmHg 88%
    06:00 +6°C° 0 mm 4 mps 762 mmHg 87%
    07:00 +7°C° 0 mm 4 mps 762 mmHg 85%
    08:00 +7°C° 0 mm 4 mps 763 mmHg 82%
    09:00 +8°C° 0 mm 4 mps 763 mmHg 79%
    10:00 +9°C° 0 mm 5 mps 763 mmHg 75%
    11:00 +10°C° 0 mm 5 mps 762 mmHg 70%
    12:00 +12°C° 0 mm 5 mps 762 mmHg 66%
    13:00 +12°C° 0 mm 5 mps 762 mmHg 66%
    14:00 +12°C° 0 mm 5 mps 762 mmHg 67%
    15:00 +12°C° 0 mm 5 mps 761 mmHg 67%
    16:00 +11°C° 0 mm 4 mps 761 mmHg 71%
    17:00 +10°C° 0 mm 4 mps 761 mmHg 75%
    18:00 +7°C° 0 mm 4 mps 761 mmHg 80%
    19:00 +7°C° 0 mm 4 mps 761 mmHg 80%
    20:00 +8°C° 0 mm 3 mps 761 mmHg 81%
    21:00 +8°C° 0 mm 3 mps 762 mmHg 82%
    22:00 +8°C° 0 mm 3 mps 761 mmHg 81%
    23:00 +8°C° 0 mm 3 mps 761 mmHg 80%

    29 October, Sunday

    Time Temperature Precipitation Wind Pressure Humidity
    00:00 +7°C° 0 mm 4 mps 761 mmHg 80%
    01:00 +7°C° 0 mm 4 mps 760 mmHg 81%
    02:00 +8°C° 0 mm 4 mps 760 mmHg 82%
    03:00 +8°C° 0 mm 5 mps 759 mmHg 83%
    04:00 +9°C° 0 mm 5 mps 759 mmHg 86%
    05:00 +9°C° 0 mm 5 mps 759 mmHg 88%
    06:00 +10°C° 0 mm 6 mps 758 mmHg 90%
    07:00 +10°C° 0 mm 6 mps 758 mmHg 88%
    08:00 +11°C° 0 mm 6 mps 758 mmHg 86%
    09:00 +11°C° 0 mm 7 mps 758 mmHg 85%
    10:00 +11°C° 0 mm 7 mps 757 mmHg 83%
    11:00 +12°C° 0 mm 7 mps 757 mmHg 82%
    12:00 +12°C° 0 mm 8 mps 756 mmHg 80%
    13:00 +12°C° 0 mm 8 mps 756 mmHg 79%
    14:00 +12°C° 0 mm 8 mps 756 mmHg 79%
    15:00 +11°C° 0 mm 8 mps 756 mmHg 78%
    16:00 +11°C° 0 mm 8 mps 756 mmHg 78%
    17:00 +10°C° 0 mm 7 mps 756 mmHg 79%
    18:00 +9°C° 0 mm 7 mps 756 mmHg 79%
    19:00 +9°C° 0 mm 6 mps 757 mmHg 79%
    20:00 +8°C° 0 mm 6 mps 757 mmHg 79%
    21:00 +7°C° 0 mm 5 mps 757 mmHg 79%
    22:00 +7°C° 0 mm 5 mps 758 mmHg 80%
    23:00 +7°C° 0 mm 4 mps 758 mmHg 82%
    Show more